www.pogodaiklimat.ru

Погода и климат >> Архив погоды >> Россия >> Якутия >> Джарджан


ПОГОДА в Джарджане

  • Прогноз погоды в Джарджане
  • Монитор погоды в Джарджане
  • Климат города

АРХИВ ПОГОДЫ в Джарджане

Время (UTC), дата Ветер
(напр.,м/с)
 
Видим.   Явления Облачность Т
(С)
Тd
(С)
f
(%)
Тe
(С)
Тes
(С)
Комфортность P
(гПа)
Po
(гПа)
Тmin
(С)
Tmax
(С)
R
(мм)
R24
(мм)
S
(см)
00 10.08 штиль 0 4000 м дым ?/? +15.4 1007.7 1003.1 +13.0
03 10.08 З 1 4000 м дым ?/? +19.2 1008.6 1004.3
06 10.08 СВ 3 10 км дым 9/0
[Ac trans]
+20.9 1009.3 1004.8
09 10.08 С 4 10 км дым 10/0
[Ci fib]
+20.3 1010.1 1005.6
12 10.08 С 3 20 км дым 10/0
[Ci fib]
+16.7 1010.9 1006.3 +21.5
15 10.08 С 3 50 км 10/0
[Ci fib]
+11.5 1011.4 1006.7
18 10.08 С 3 50 км 10/0
[Ac und]
+8.2 1011.4 1006.7
21 10.08 С 2 50 км 10/0
[Ci sp]
+7.2 1011.5 1006.7
00 11.08 С 1 50 км 10/0
[As op]
+8.8 1011.2 1006.5 +8.9
03 11.08 С 2 50 км 10/0
[Cs]
+12.6 1010.0 1005.4
06 11.08 С 2 50 км 10/0
[Ac und]
+15.0 0.0 36 +15 +17 1008.9 1004.3
09 11.08 штиль 0 20 км дым 10/0
[Ac As]
+16.0 1008.7 1004.1
12 11.08 штиль 0 50 км 10/0
[Ac As]
+14.8 0.0 36 +15 +15 1008.6 1004.0 +16.2
15 11.08 штиль 0 4000 м 10/0
[Ac As]
+12.6 1008.2 1003.6
18 11.08 штиль 0 50 км 10/0
[Ac As]
+12.6 1007.5 1002.9
21 11.08 штиль 0 20 км слабый дождь 10/0
[As op]
+13.7 1006.2 1001.6
00 12.08 штиль 0 50 км {дождь} 10/0
[As op]
+15.9 1005.7 1001.1 +12.1 0.4
03 12.08 штиль 0 50 км 10/0 600 м
[As op]
+15.8 1005.8 1001.2
06 12.08 Ю 2 50 км 10/0 600 м
[As op]
+17.2 1006.1 1001.6
09 12.08 ЮЗ 2 50 км 10/0 600 м
[As op]
+17.6 1007.1 1002.6
12 12.08 ЮЗ 1 50 км 6/0 600 м
[As op]
+16.8 1008.2 1003.6 +18.1
15 12.08 ЮЗ 3 50 км 10/0
[Ac trans Ci fib]
+16.7 1009.4 1004.8
18 12.08 штиль 0 50 км 10/0
[Ci fib]
+13.9 1011.1 1006.5
21 12.08 ЮВ 2 50 км 10/0
[Ci fib]
+14.6 1012.1 1007.5
00 13.08 Ю 2 50 км 10/0
[Ci fib]
+17.2 1013.1 1008.5 +13.9
03 13.08 Ю 3 50 км 10/0
[Ci fib]
+20.8 1013.8 1009.3
06 13.08 ЮЗ 3 50 км 8/0
[Ac trans]
+23.6 1014.0 1009.5
09 13.08 Ю 2 50 км 8/0
[Ac trans]
+20.8 1014.4 1009.9
12 13.08 штиль 0 50 км 3/0
[Ci fib]
+17.1 1014.7 1010.1 +24.1
15 13.08 ЮВ 1 50 км ясно +15.0 1014.7 1010.1
18 13.08 Ю 2 50 км ясно +15.2 1014.6 1010.0
21 13.08 Ю 4 50 км ясно +15.6 1014.5 1010.0
00 14.08 Ю 2 20 км дым ясно +19.6 1013.3 1008.8 +14.7
03 14.08 З 5 20 км дым ясно +23.4 1012.4 1007.9
06 14.08 ЮЗ 5 20 км 10/0
[Ci fib]
+25.6 1011.3 1006.8
09 14.08 ЮЗ 3 20 км дым 10/0
[Ci fib]
+25.6 0.0 19 +24 +25 комфорт 1010.9 1006.4
12 14.08 штиль 0 20 км дым 8/0
[Ci fib]
+19.9 1010.6 1006.1 +26.8
15 14.08 штиль 0 20 км дым 6/0
[Ci fib]
+17.6 1010.2 1005.7
18 14.08 штиль 0 20 км дым 8/0
[Ac trans Ci fib]
+14.2 0.0 38 +14 +14 1010.2 1005.6
21 14.08 В 1 20 км дым 6/0
[Ci fib]
+13.8 1009.4 1004.9
00 15.08 В 1 20 км дым 6/0
[Ci fib]
+17.8 1008.1 1003.6 +13.8
03 15.08 Ю 2 20 км дым 10/0
[Ac und]
+17.8 1007.3 1002.8
06 15.08 Ю 4 20 км дым 6/0
[Ci fib]
+21.8 1005.6 1001.1
09 15.08 Ю 5 20 км дым 10/0
[Ac und]
+22.4 1005.2 1000.7
12 15.08 Ю 4 50 км в посл. час дождь 10/0
[As op]
+19.2 1005.0 1000.5 +22.9 7
15 15.08 З 3 10 км слабый дождь 10/0 600 м
[As op]
+18.6 1006.7 1002.2
18 15.08 С 4 10 км слабый дождь 10/0 600 м
[As op]
+10.8 1010.5 1005.8
21 15.08 С 2 50 км {дождь} 10/0 600 м
[As op]
+8.7 1012.3 1007.6
00 16.08 С 4 10 км слабый дождь 10/0 600 м
[As op]
+8.2 +7.6 96 +5 +5 1013.4 1008.7 +8.2 6
03 16.08 С 2 50 км {дождь} 10/0 600 м
[As op]
+8.6 +7.3 92 +7 +8 1015.3 1010.6
06 16.08 С 1 50 км {дождь} 10/0 600 м
[As op]
+10.0 +8.6 91 +9 +11 1016.3 1011.6
09 16.08 С 1 50 км 10/0 600 м
[As op]
+9.8 +6.8 82 +9 +10 1017.3 1012.6
12 16.08 З 2 50 км 10/4 600 м
[Sc Ac und]
+10.1 +7.0 81 +9 +9 1018.3 1013.6 +10.2 0.5
15 16.08 З 2 50 км 10/8 600 м
[Sc Ac und]
+10.3 +6.7 78 +9 +9 1018.3 1013.6
18 16.08 З 2 50 км 10/0
[Ac und]
+9.8 +6.5 80 +8 +8 1018.5 1013.8
21 16.08 штиль 0 50 км 10/0
[Ac und]
+8.4 +6.7 89 +8 +8 1018.1 1013.4

 

Местоположение метеостанции Джарджан (Якутия, Россия): широта 68.73 долгота 124.00 высота над уровнем моря 39 м.

В архиве по умолчанию представлена погода в Джарджане за последнюю неделю. Архивные данные за месяц целиком и за предыдущие месяцы, начиная с января 2011 года, Вы можете получить, выбрав интересующий диапазон дат из раскрывающегося списка и нажав кнопку "Ввод!".

Внимание! Время в таблицах - всемирное. Для получения местного времени необходимо прибавить поправку, которая в Джарджане равна 9 ч.

Смотрите также архив погоды в соседних городах и на ближайших метеорологических станциях:

Погода в Жиганске (Якутия, Россия) (219 км)
Погода в Сухане (Якутия, Россия) (231 км)
Погода в Кюсюре (Якутия, Россия) (253 км)
Погода в Батагай-Алыте (Якутия, Россия) (284 км)
Погода в Тюмяти (Якутия, Россия) (355 км)
Погода в Тикси (Якутия, Россия) (367 км)
Погода в Бестяхской Звероферме (Якутия, Россия) (382 км)
Погода в Екюччю (Якутия, Россия) (387 км)
Погода в Верхоянске (Якутия, Россия) (409 км)
Погода на Мысе Быков (Якутия, Россия) (410 км)

Пояснения к столбцам:

Ветер - указаны скорость ветра в м/с - средняя за 10 мин, порывы в срок и между сроками (в фигурных скобках) и направление, откуда дует ветер: С - северный, СВ - северо-восточный, В - восточный, ЮВ - юго-восточный, Ю - южный, ЮЗ - юго-западный, З - западный, СЗ - северо-западный.
Видимость - горизонтальная дальность видимости в метрах или километрах. При видимости от 1 до 10 км при отсутствии осадков обычно наблюдается дымка, при ухудшении видимости до 1 км и менее - туман. В сухую погоду видимость может ухудшаться дымом, пылью или мглою.
Явления - указаны атмосферные явления, наблюдавшиеся в срок или в последний час перед сроком; фигурными скобками обозначены явления, наблюдавшиеся между сроками (за 1-3 часа до срока); квадратными скобками обозначены град или гололедные отложения с указанием их диаметра в мм.
Облачность - указаны через наклонную черту общая и нижняя облачность в баллах и высота нижней границы облаков в метрах; квадратными скобками обозначены формы облаков: Ci - перистые, Cs - перисто-слоистые, Cc - перисто-кучевые, Ac - высококучевые, As - высокослоистые, Sc - слоисто-кучевые, Ns - слоисто-дождевые, Cu - кучевые, Cb - кучево-дождевые. Подробнее классификацию облаков см. в Атласе облаков (PDF).
T - Температура воздуха - температура, измеренная на высоте 2 м над землей.
Td - Температура точки росы - температура, при понижении до которой содержащийся в воздухе водяной пар достигнет насыщения.
f - Относительная влажность воздуха - влажноcть воздуха, измеренная на высоте 2 м над землей.
Te - Эффективная температура - температура, которую ощущает одетый по сезону человек в тени. Характеристика душности погоды. При расчете учитывается влияние влажности воздуха и скорости ветра на теплоощущения человека.
Tes - Эффективная температура на солнце - температура, которую ощущает человек, с поправкой на солнечный нагрев. Характеристика знойности погоды. Зависит от высоты солнца над горизонтом, облачности и скорости ветра. Ночью, в пасмурную погоду, а также при ветре 12 м/с и более поправка равна нулю.
P - Атмосферное давление - приведенное к уровню моря атмосферное давление.
Po - Атмосферное давление - измеренное на уровне метеостанции атмосферное давление.
Tmin - Минимальная температура - минимум температуры воздуха на высоте 2 м над землей.
Tmax - Максимальная температура - максимум температуры воздуха на высоте 2 м над землей.
R - Количество осадков - Количество выпавших осадков за период времени, мм. При наведении курсора мыши на число - период времени, за который выпало указанное количество осадков.
R24 - Количество осадков - Количество выпавших осадков за 24 часа, мм.
S - Снежный покров - Высота снежного покрова, см. При наведении курсора мыши на число - состояние снежного покрова и степень покрытия местности в баллах.